Wahpeton, MN

2:45 AM CST on November 14, 2019 (GMT -0600)
Stern

Weather History for KBWP - September, 2019

Change the Weather History Date:

Wednesday, September 18, 2019

  Actual Average (WUND) Record (WUND)
Temperature  
Mean Temperature 70 °F -  
Max Temperature 77 °F - - (-1)
Min Temperature 60 °F - - (-1)
Cooling Degree Days 4    
Growing Degree Days 20 (Base 50)    
Moisture  
Dew Point 59 °F    
Average Humidity 71    
Maximum Humidity 94    
Minimum Humidity 50    
Precipitation  
Precipitation 0.00 in - - ()
Sea Level Pressure  
Sea Level Pressure 29.78 in    
Wind  
Wind Speed 12 mph ()    
Max Wind Speed 24 mph    
Max Gust Speed 32 mph    
Visibility 9.9 miles    
Events      
Averages and records for this station are not official NWS values.
T = Trace of Precipitation, MM = Missing Value Source: Averaged Metar Reports

Daily Weather History Graph

Daily Weather History Graph

Search for Another Location

Airport or City:

Astronomy

Sep. 18, 2019 Rise Set
Actual Time 7:08 AM CDT 7:32 PM CDT
Civil Twilight 6:37 AM CDT 8:02 PM CDT
Nautical Twilight 6:02 AM CDT 8:37 PM CDT
Astronomical Twilight 5:25 AM CDT 9:14 PM CDT
Moon 9:53 PM CDT (9/18) 11:25 AM CDT (9/18)
Length of Visible Light 13h 24m
Length of Day
12h 24m
Waning Gibbous, 82% of the Moon is Illuminated
Sep 18
Waning Gibbous
Sep 21
Last Quarter
Sep 28
New
Oct 5
First Quarter
Oct 13
Full

Hourly Weather History & Observations

Time (CDT) Temp. Dew Point Humidity Pressure Visibility Wind Dir Wind Speed Gust Speed Precip Events Conditions
12:15 AM 75.2 °F 64.4 °F 69% 29.68 in 10.0 mi SSE 17.3 mph - N/A   Unknown
12:35 AM 75.2 °F 64.4 °F 69% 29.67 in 10.0 mi SSE 16.1 mph 21.9 mph N/A   Unknown
12:55 AM 73.4 °F 64.4 °F 73% 29.67 in 10.0 mi SSE 15.0 mph - N/A   Unknown
1:35 AM 73.4 °F 66.2 °F 78% 29.70 in 10.0 mi South 20.7 mph 29.9 mph N/A   Unknown
1:55 AM 71.6 °F 68.0 °F 88% 29.70 in 5.0 mi SSW 17.3 mph 28.8 mph N/A   Unknown
2:15 AM 71.6 °F 66.2 °F 83% 29.70 in 7.0 mi West 24.2 mph 32.2 mph N/A   Unknown
2:35 AM 69.8 °F 60.8 °F 73% 29.69 in 10.0 mi WSW 3.5 mph 11.5 mph N/A   Unknown
2:55 AM 68.0 °F 64.4 °F 88% 29.66 in 10.0 mi SSE 16.1 mph - N/A   Unknown
3:15 AM 69.8 °F 64.4 °F 83% 29.63 in 10.0 mi SW 3.5 mph - N/A   Unknown
3:35 AM 69.8 °F 64.4 °F 83% 29.66 in 10.0 mi South 11.5 mph - N/A   Unknown
3:55 AM 68.0 °F 62.6 °F 83% 29.68 in 10.0 mi South 12.7 mph - N/A   Unknown
4:15 AM 68.0 °F 60.8 °F 78% 29.68 in 10.0 mi SSE 10.4 mph - N/A   Unknown
4:55 AM 64.4 °F 60.8 °F 88% 29.69 in 10.0 mi SE 9.2 mph - N/A   Unknown
5:15 AM 64.4 °F 60.8 °F 88% 29.68 in 10.0 mi SE 10.4 mph 16.1 mph N/A   Unknown
5:35 AM 64.4 °F 60.8 °F 88% 29.69 in 10.0 mi SSE 10.4 mph - N/A   Unknown
6:15 AM 66.2 °F 60.8 °F 83% 29.73 in 10.0 mi SSE 10.4 mph - N/A   Unknown
6:35 AM 66.2 °F 60.8 °F 83% 29.72 in 10.0 mi SSE 11.5 mph - N/A   Unknown
6:55 AM 66.2 °F 62.6 °F 88% 29.73 in 10.0 mi SSE 10.4 mph - N/A   Unknown
7:15 AM 66.2 °F 62.6 °F 88% 29.73 in 10.0 mi South 9.2 mph - N/A   Unknown
7:35 AM 64.4 °F 62.6 °F 94% 29.74 in 10.0 mi South 8.1 mph - N/A   Unknown
7:55 AM 64.4 °F 62.6 °F 94% 29.74 in 10.0 mi South 8.1 mph - N/A   Unknown
8:15 AM 64.4 °F 62.6 °F 94% 29.74 in 10.0 mi SW 9.2 mph - N/A   Unknown
8:35 AM 66.2 °F 60.8 °F 83% 29.75 in 10.0 mi WSW 11.5 mph - N/A   Unknown
8:55 AM 66.2 °F 57.2 °F 73% 29.75 in 10.0 mi WSW 18.4 mph 21.9 mph N/A   Unknown
9:15 AM 64.4 °F 53.6 °F 68% 29.76 in 10.0 mi WSW 12.7 mph - N/A   Unknown
9:35 AM 64.4 °F 53.6 °F 68% 29.75 in 10.0 mi WSW 13.8 mph - N/A   Unknown
9:55 AM 66.2 °F 53.6 °F 64% 29.75 in 10.0 mi WSW 12.7 mph - N/A   Unknown
10:15 AM 68.0 °F 53.6 °F 60% 29.75 in 10.0 mi SW 12.7 mph 19.6 mph N/A   Unknown
10:35 AM 68.0 °F 53.6 °F 60% 29.75 in 10.0 mi WSW 12.7 mph - N/A   Unknown
10:55 AM 68.0 °F 53.6 °F 60% 29.76 in 10.0 mi West 16.1 mph 21.9 mph N/A   Unknown
11:15 AM 69.8 °F 53.6 °F 56% 29.77 in 10.0 mi WSW 16.1 mph 23.0 mph N/A   Unknown
11:35 AM 69.8 °F 53.6 °F 56% 29.78 in 10.0 mi SW 16.1 mph 20.7 mph N/A   Unknown
11:55 AM 69.8 °F 53.6 °F 56% 29.78 in 10.0 mi WSW 16.1 mph 20.7 mph N/A   Unknown
12:15 PM 71.6 °F 55.4 °F 57% 29.79 in 10.0 mi WSW 16.1 mph 20.7 mph N/A   Unknown
12:35 PM 71.6 °F 53.6 °F 53% 29.79 in 10.0 mi WSW 18.4 mph 23.0 mph N/A   Unknown
12:55 PM 71.6 °F 55.4 °F 57% 29.80 in 10.0 mi WSW 16.1 mph - N/A   Unknown
1:15 PM 71.6 °F 55.4 °F 57% 29.80 in 10.0 mi WSW 17.3 mph 23.0 mph N/A   Unknown
1:35 PM 71.6 °F 55.4 °F 57% 29.80 in 10.0 mi WSW 17.3 mph 25.3 mph N/A   Unknown
1:55 PM 71.6 °F 55.4 °F 57% 29.80 in 10.0 mi WSW 21.9 mph 26.5 mph N/A   Unknown
2:15 PM 73.4 °F 55.4 °F 53% 29.80 in 10.0 mi West 20.7 mph - N/A   Unknown
2:35 PM 73.4 °F 55.4 °F 53% 29.80 in 10.0 mi WSW 20.7 mph 26.5 mph N/A   Unknown
2:55 PM 73.4 °F 55.4 °F 53% 29.80 in 10.0 mi WSW 18.4 mph 26.5 mph N/A   Unknown
3:15 PM 73.4 °F 55.4 °F 53% 29.80 in 10.0 mi West 18.4 mph 25.3 mph N/A   Unknown
3:35 PM 73.4 °F 55.4 °F 53% 29.81 in 10.0 mi WSW 17.3 mph 24.2 mph N/A   Unknown
3:55 PM 75.2 °F 55.4 °F 50% 29.81 in 10.0 mi WSW 13.8 mph 25.3 mph N/A   Unknown
4:15 PM 75.2 °F 55.4 °F 50% 29.81 in 10.0 mi WSW 16.1 mph - N/A   Unknown
4:35 PM 75.2 °F 55.4 °F 50% 29.81 in 10.0 mi West 18.4 mph - N/A   Unknown
4:55 PM 75.2 °F 57.2 °F 53% 29.81 in 10.0 mi WSW 17.3 mph - N/A   Unknown
5:15 PM 77.0 °F 57.2 °F 50% 29.82 in 10.0 mi WSW 12.7 mph 19.6 mph N/A   Unknown
5:35 PM 77.0 °F 57.2 °F 50% 29.82 in 10.0 mi WSW 13.8 mph - N/A   Unknown
5:55 PM 77.0 °F 57.2 °F 50% 29.82 in 10.0 mi WSW 12.7 mph 17.3 mph N/A   Unknown
6:15 PM 77.0 °F 59.0 °F 54% 29.82 in 10.0 mi SW 10.4 mph 17.3 mph N/A   Unknown
6:35 PM 75.2 °F 59.0 °F 57% 29.83 in 10.0 mi SW 9.2 mph - N/A   Unknown
6:55 PM 73.4 °F 59.0 °F 61% 29.83 in 10.0 mi South 6.9 mph - N/A   Unknown
7:15 PM 71.6 °F 60.8 °F 69% 29.84 in 10.0 mi South 5.8 mph - N/A   Unknown
7:35 PM 69.8 °F 60.8 °F 73% 29.84 in 10.0 mi South 8.1 mph - N/A   Unknown
7:55 PM 68.0 °F 60.8 °F 78% 29.85 in 10.0 mi South 6.9 mph - N/A   Unknown
8:15 PM 68.0 °F 60.8 °F 78% 29.86 in 10.0 mi South 8.1 mph - N/A   Unknown
8:35 PM 68.0 °F 59.0 °F 73% 29.87 in 10.0 mi SSW 6.9 mph - N/A   Unknown
8:55 PM 66.2 °F 59.0 °F 78% 29.87 in 10.0 mi SSW 5.8 mph - N/A   Unknown
9:15 PM 64.4 °F 59.0 °F 83% 29.87 in 10.0 mi South 5.8 mph - N/A   Unknown
9:35 PM 64.4 °F 59.0 °F 83% 29.88 in 10.0 mi SSW 5.8 mph - N/A   Unknown
9:55 PM 62.6 °F 59.0 °F 88% 29.89 in 10.0 mi South 6.9 mph - N/A   Unknown
10:15 PM 64.4 °F 59.0 °F 83% 29.89 in 10.0 mi SSW 6.9 mph - N/A   Unknown
10:35 PM 64.4 °F 59.0 °F 83% 29.90 in 10.0 mi SW 5.8 mph - N/A   Unknown
10:55 PM 64.4 °F 59.0 °F 83% 29.90 in 10.0 mi SW 5.8 mph - N/A   Unknown
11:15 PM 64.4 °F 59.0 °F 83% 29.90 in 10.0 mi WSW 5.8 mph - N/A   Unknown
11:35 PM 62.6 °F 57.2 °F 82% 29.91 in 10.0 mi WSW 4.6 mph - N/A   Unknown
11:55 PM 60.8 °F 57.2 °F 88% 29.91 in 10.0 mi WSW 3.5 mph - N/A   Unknown